Weather in Katkovka

Russia / Penza Oblast     52°37′41″N   44°44′27″E
temp.,
°C
wind,
m/s
gust,
m/s
humid.,
%
clouds,
%
prec.,
mm/h
press.,
hPa
HPBL,
m
28 june, tue
tue2800:00+18w369515 3.3 1015108
03:00+17wnw33930 3.3 101433
06:00+19n36910 0.0 1014222
09:00+22nne57730 0.0 1015733
12:00+23nne786626 0.4 10151357
15:00+22nne67540 0.5 10161655
18:00+19nne68600 0.0 1017816
21:00+14nne511640 0.0 1020328
29 june, wed
wed2900:00+11ne38730 0.0 1020150
03:00+10ene22780 0.0 102212
06:00+12nne23732 0.0 1022176
09:00+16nne45535 0.0 10211309
12:00+18n564771 0.0 10211998
15:00+18n455197 0.0 10201499
18:00+17n356398 0.0 1020402
21:00+13nne227265 0.1 101911
30 june, thu
thu3000:00+12n11691 0.0 101910
03:00+11nw33760 0.0 101926
06:00+13nw36765 0.0 1018169
09:00+18nw56535 0.0 1017973
12:00+20nnw6746100 0.0 10162035
15:00+21nnw784488 0.0 10152286
18:00+20nnw58565 0.0 1014813
21:00+16nw366577 0.0 1015152
1 july, fri
fri100:00+16n34639 0.0 101577
03:00+14ne496663 0.0 1015329
06:00+12nne597092 0.0 1017365
09:00+16nne69522 0.0 10181446
12:00+18n68455 0.0 10181724
15:00+19n784727 0.0 10182001
18:00+16ne585944 0.0 1019765
21:00+12ne227216 0.0 102015
2 july, sat
sat200:00+11w33733 0.0 102025
03:00+9wnw35825 0.0 102073
06:00+13nw38710 0.0 1020231
09:00+19nw46565 0.0 1020761
12:00+22nw45440 0.0 10181695
15:00+23nw45455 0.0 10171820
18:00+22wnw46585 0.0 1017496
21:00+17wsw47710 0.0 101697